| time (UTC) | temp F | wind direction | speed MPH | gust MPH | rain 1hr in | rain 24hr in | rain mn in | humidity % | barometer mb |
| 20260505004344 | 50 | 266 | 6.0 | 17.0 | 0.00 | 0.00 | 0.00 | 47 | 1001.8 |
| 20260505004101 | 50 | 294 | 7.0 | 17.0 | 0.00 | 0.00 | 0.00 | 48 | 1001.8 |
| 20260505003337 | 50 | 323 | 7.0 | 15.0 | 0.00 | 0.00 | 0.00 | 48 | 1001.9 |
| 20260505002835 | 50 | 240 | 6.0 | 15.0 | 0.00 | 0.00 | 0.00 | 48 | 1001.8 |
| 20260505002333 | 50 | 341 | 6.0 | 14.0 | 0.00 | 0.00 | 0.00 | 48 | 1001.7 |
| 20260505001831 | 50 | 296 | 7.0 | 14.0 | 0.00 | 0.00 | 0.00 | 48 | 1001.6 |
| 20260505001557 | 51 | 308 | 7.0 | 19.0 | 0.00 | 0.00 | 0.00 | 47 | 1001.6 |
| 20260505000829 | 51 | 338 | 7.0 | 19.0 | 0.00 | 0.00 | 0.00 | 46 | 1001.4 |
| 20260505000330 | 52 | 308 | 6.0 | 16.0 | 0.00 | 0.00 | 0.00 | 46 | 1001.3 |
| 20260504235828 | 52 | 318 | 5.0 | 16.0 | 0.00 | 0.00 | 0.00 | 46 | 1001.2 |
| 20260504235810 | 52 | 306 | 6.0 | 16.0 | 0.00 | 0.00 | 0.00 | 46 | 1001.1 |
| 20260504235041 | 52 | 321 | 7.0 | 16.0 | 0.00 | 0.00 | 0.00 | 45 | 1001.0 |
| 20260504234323 | 53 | 297 | 7.0 | 15.0 | 0.00 | 0.00 | 0.00 | 44 | 1001.0 |
| 20260504234046 | 53 | 260 | 6.0 | 15.0 | 0.00 | 0.00 | 0.00 | 44 | 1000.8 |
| 20260504233754 | 53 | 348 | 7.0 | 19.0 | 0.00 | 0.00 | 0.00 | 43 | 1000.8 |
| 20260504233507 | 53 | 313 | 6.0 | 19.0 | 0.00 | 0.00 | 0.00 | 43 | 1000.8 |
| 20260504232311 | 54 | 295 | 5.0 | 19.0 | 0.00 | 0.00 | 0.00 | 44 | 1000.6 |
| 20260504231810 | 54 | 291 | 7.0 | 19.0 | 0.00 | 0.00 | 0.00 | 42 | 1000.6 |
| 20260504231309 | 54 | 313 | 7.0 | 20.0 | 0.00 | 0.00 | 0.00 | 41 | 1000.5 |
| 20260504230808 | 54 | 315 | 8.0 | 20.0 | 0.00 | 0.00 | 0.00 | 42 | 1000.6 |
| 20260504230309 | 55 | 274 | 7.0 | 19.0 | 0.00 | 0.00 | 0.00 | 42 | 1000.5 |
| 20260504225808 | 54 | 269 | 7.0 | 20.0 | 0.00 | 0.00 | 0.00 | 42 | 1000.4 |
| 20260504225306 | 55 | 291 | 8.0 | 20.0 | 0.00 | 0.00 | 0.00 | 42 | 1000.4 |
| 20260504224807 | 54 | 304 | 7.0 | 18.0 | 0.00 | 0.00 | 0.00 | 42 | 1000.4 |
| 20260504224307 | 54 | 304 | 8.0 | 20.0 | 0.00 | 0.00 | 0.00 | 42 | 1000.3 |
| 20260504223805 | 55 | 342 | 7.0 | 20.0 | 0.00 | 0.00 | 0.00 | 43 | 1000.2 |
| 20260504223305 | 55 | 297 | 6.0 | 18.0 | 0.00 | 0.00 | 0.00 | 43 | 1000.1 |
| 20260504223023 | 55 | 280 | 7.0 | 18.0 | 0.00 | 0.00 | 0.00 | 43 | 1000.0 |
| 20260504222527 | 55 | 267 | 7.0 | 18.0 | 0.00 | 0.00 | 0.00 | 42 | 999.8 |
| 20260504222032 | 55 | 237 | 6.0 | 16.0 | 0.00 | 0.00 | 0.00 | 42 | 999.7 |
| 20260504221300 | 55 | 340 | 6.0 | 11.0 | 0.00 | 0.00 | 0.00 | 43 | 999.6 |
| 20260504220800 | 55 | 306 | 7.0 | 19.0 | 0.00 | 0.00 | 0.00 | 44 | 999.6 |
| 20260504220532 | 55 | 311 | 7.0 | 19.0 | 0.00 | 0.00 | 0.00 | 43 | 999.6 |
| 20260504215759 | 56 | 317 | 6.0 | 14.0 | 0.00 | 0.00 | 0.00 | 44 | 999.5 |
| 20260504215256 | 56 | 299 | 7.0 | 12.0 | 0.00 | 0.00 | 0.00 | 42 | 999.5 |
| 20260504215245 | 57 | 325 | 7.0 | 16.0 | 0.00 | 0.00 | 0.00 | 43 | 999.3 |
| 20260504214254 | 57 | 313 | 6.0 | 18.0 | 0.00 | 0.00 | 0.00 | 43 | 999.3 |
| 20260504213754 | 57 | 279 | 7.0 | 21.0 | 0.00 | 0.00 | 0.00 | 45 | 999.1 |
| 20260504213254 | 56 | 315 | 7.0 | 21.0 | 0.00 | 0.00 | 0.00 | 46 | 999.1 |
| 20260504213016 | 57 | 265 | 7.0 | 21.0 | 0.00 | 0.00 | 0.00 | 44 | 999.1 |
| 20260504212248 | 56 | 331 | 7.0 | 21.0 | 0.00 | 0.00 | 0.00 | 45 | 998.9 |
| 20260504211741 | 56 | 303 | 8.0 | 19.0 | 0.00 | 0.00 | 0.00 | 43 | 999.0 |
| 20260504211239 | 57 | 294 | 8.0 | 19.0 | 0.00 | 0.00 | 0.00 | 43 | 999.0 |
| 20260504211007 | 58 | 292 | 8.0 | 18.0 | 0.00 | 0.00 | 0.00 | 45 | 998.8 |
| 20260504210238 | 57 | 292 | 7.0 | 18.0 | 0.00 | 0.00 | 0.00 | 46 | 998.8 |
| 20260504205737 | 56 | 309 | 8.0 | 18.0 | 0.00 | 0.00 | 0.00 | 46 | 998.9 |
| 20260504205235 | 56 | 51 | 9.0 | 19.0 | 0.00 | 0.00 | 0.00 | 47 | 998.8 |
| 20260504204732 | 57 | 305 | 7.0 | 19.0 | 0.00 | 0.00 | 0.00 | 46 | 998.8 |
| 20260504204231 | 57 | 331 | 7.0 | 21.0 | 0.00 | 0.00 | 0.00 | 45 | 998.7 |
| 20260504203723 | 58 | 303 | 9.0 | 22.0 | 0.00 | 0.00 | 0.00 | 46 | 998.6 |
| 20260504203328 | 57 | 292 | 10.0 | 22.0 | 0.00 | 0.00 | 0.00 | 47 | 998.6 |
| 20260504202216 | 57 | 261 | 7.0 | 16.0 | 0.00 | 0.00 | 0.00 | 48 | 998.6 |
| 20260504201717 | 58 | 331 | 7.0 | 18.0 | 0.00 | 0.00 | 0.00 | 45 | 998.5 |
| 20260504201218 | 58 | 300 | 6.0 | 18.0 | 0.00 | 0.00 | 0.00 | 47 | 998.5 |
| 20260504200722 | 60 | 329 | 8.0 | 22.0 | 0.00 | 0.00 | 0.00 | 44 | 998.3 |
| 20260504200716 | 58 | 355 | 8.0 | 22.0 | 0.00 | 0.00 | 0.00 | 45 | 998.4 |
| 20260504195917 | 60 | 319 | 6.0 | 17.0 | 0.00 | 0.00 | 0.00 | 49 | 998.2 |
| 20260504195150 | 59 | 347 | 7.0 | 18.0 | 0.00 | 0.00 | 0.00 | 45 | 998.2 |
| 20260504194648 | 60 | 276 | 7.0 | 20.0 | 0.00 | 0.00 | 0.00 | 45 | 998.0 |
| 20260504194149 | 61 | 275 | 7.0 | 20.0 | 0.00 | 0.00 | 0.00 | 46 | 998.0 |
| 20260504193648 | 60 | 286 | 8.0 | 16.0 | 0.00 | 0.00 | 0.00 | 44 | 997.9 |
| 20260504193410 | 61 | 278 | 7.0 | 27.0 | 0.00 | 0.00 | 0.00 | 45 | 997.9 |
| 20260504192637 | 60 | 294 | 8.0 | 27.0 | 0.00 | 0.00 | 0.00 | 45 | 997.8 |
| 20260504192138 | 60 | 279 | 9.0 | 21.0 | 0.00 | 0.00 | 0.00 | 45 | 997.8 |
| 20260504192122 | 60 | 308 | 8.0 | 21.0 | 0.00 | 0.00 | 0.00 | 45 | 997.7 |
| 20260504191132 | 61 | 272 | 6.0 | 16.0 | 0.00 | 0.00 | 0.00 | 45 | 997.5 |
| 20260504190900 | 60 | 296 | 6.0 | 16.0 | 0.00 | 0.00 | 0.00 | 47 | 997.5 |
| 20260504190133 | 60 | 279 | 7.0 | 16.0 | 0.00 | 0.00 | 0.00 | 47 | 997.4 |
| 20260504185629 | 60 | 292 | 7.0 | 15.0 | 0.00 | 0.00 | 0.00 | 47 | 997.4 |
| 20260504185126 | 60 | 300 | 7.0 | 18.0 | 0.00 | 0.00 | 0.00 | 48 | 997.2 |
| 20260504184628 | 60 | 323 | 7.0 | 18.0 | 0.00 | 0.00 | 0.00 | 51 | 997.2 |
| 20260504184330 | 59 | 311 | 7.0 | 18.0 | 0.00 | 0.00 | 0.00 | 50 | 997.1 |
| 20260504183605 | 60 | 298 | 6.0 | 18.0 | 0.00 | 0.00 | 0.00 | 49 | 997.1 |
| 20260504183327 | 60 | 284 | 8.0 | 18.0 | 0.00 | 0.00 | 0.00 | 49 | 997.1 |
| 20260504182605 | 60 | 307 | 8.0 | 21.0 | 0.00 | 0.00 | 0.00 | 50 | 996.9 |
| 20260504182328 | 60 | 316 | 8.0 | 21.0 | 0.00 | 0.00 | 0.00 | 47 | 996.9 |
| 20260504181559 | 60 | 290 | 7.0 | 21.0 | 0.00 | 0.00 | 0.00 | 49 | 996.8 |
| 20260504181055 | 60 | 286 | 8.0 | 21.0 | 0.00 | 0.00 | 0.00 | 49 | 996.7 |
| 20260504180553 | 60 | 315 | 9.0 | 23.0 | 0.00 | 0.00 | 0.00 | 50 | 996.7 |
| 20260504180053 | 60 | 298 | 8.0 | 23.0 | 0.00 | 0.00 | 0.00 | 48 | 996.6 |
| 20260504175550 | 61 | 316 | 8.0 | 23.0 | 0.00 | 0.00 | 0.00 | 50 | 996.5 |
| 20260504175047 | 61 | 267 | 10.0 | 23.0 | 0.00 | 0.00 | 0.00 | 49 | 996.2 |
| 20260504174548 | 61 | 263 | 8.0 | 20.0 | 0.00 | 0.00 | 0.00 | 46 | 996.3 |
| 20260504174047 | 62 | 338 | 7.0 | 21.0 | 0.00 | 0.00 | 0.00 | 48 | 996.1 |
| 20260504173548 | 61 | 278 | 8.0 | 22.0 | 0.00 | 0.00 | 0.00 | 44 | 996.2 |
| 20260504173049 | 62 | 297 | 7.0 | 22.0 | 0.00 | 0.00 | 0.00 | 44 | 996.2 |
| 20260504172546 | 62 | 282 | 8.0 | 20.0 | 0.00 | 0.00 | 0.00 | 43 | 996.2 |
| 20260504172046 | 62 | 301 | 9.0 | 20.0 | 0.00 | 0.00 | 0.00 | 42 | 996.1 |
| 20260504171541 | 62 | 241 | 9.0 | 20.0 | 0.00 | 0.00 | 0.00 | 44 | 995.9 |
| 20260504171301 | 61 | 5 | 7.0 | 20.0 | 0.00 | 0.00 | 0.00 | 43 | 995.9 |
| 20260504170537 | 61 | 257 | 6.0 | 16.0 | 0.00 | 0.00 | 0.00 | 43 | 996.2 |
| 20260504170307 | 61 | 345 | 7.0 | 20.0 | 0.00 | 0.00 | 0.00 | 42 | 996.1 |
| 20260504160117 | 61 | 314 | 6.0 | 23.0 | 0.00 | 0.00 | 0.00 | 47 | 995.6 |
| 20260504151006 | 60 | 291 | 7.0 | 21.0 | 0.00 | 0.00 | 0.00 | 49 | 995.2 |
| 20260504150506 | 60 | 279 | 6.0 | 18.0 | 0.00 | 0.00 | 0.00 | 49 | 995.3 |
| 20260504150451 | 60 | 296 | 5.0 | 18.0 | 0.00 | 0.00 | 0.00 | 49 | 995.3 |
| 20260504140936 | 58 | 292 | 6.0 | 17.0 | 0.00 | 0.00 | 0.00 | 50 | 995.1 |
| 20260504140648 | 58 | 18 | 6.0 | 17.0 | 0.00 | 0.00 | 0.00 | 50 | 995.1 |
| 20260504130403 | 59 | 288 | 7.0 | 18.0 | 0.00 | 0.00 | 0.00 | 49 | 994.4 |
| 20260504110325 | 61 | 217 | 9.0 | 21.0 | 0.00 | 0.00 | 0.00 | 44 | 992.3 |
| 20260504100306 | 60 | 169 | 5.0 | 11.0 | 0.00 | 0.00 | 0.00 | 43 | 992.4 |
| 20260504081704 | 58 | 184 | 4.0 | 9.0 | 0.00 | 0.00 | 0.00 | 46 | 994.5 |
| 20260504081201 | 58 | 134 | 4.0 | 9.0 | 0.00 | 0.00 | 0.00 | 46 | 994.6 |
| 20260504080658 | 58 | 180 | 4.0 | 11.0 | 0.00 | 0.00 | 0.00 | 46 | 994.7 |
| 20260504080152 | 58 | 178 | 4.0 | 11.0 | 0.00 | 0.00 | 0.00 | 47 | 994.8 |
| 20260504060220 | 56 | 202 | 3.0 | 8.0 | 0.00 | 0.00 | 0.00 | 50 | 997.1 |
| 20260504050601 | 54 | 167 | 2.0 | 5.0 | 0.00 | 0.00 | 0.00 | 53 | 998.3 |
| 20260504045544 | 54 | 171 | 1.0 | 6.0 | 0.00 | 0.00 | 0.00 | 54 | 998.5 |
| 20260504045046 | 54 | 173 | 1.0 | 6.0 | 0.00 | 0.00 | 0.00 | 54 | 998.6 |
| 20260504044539 | 54 | 172 | 1.0 | 5.0 | 0.00 | 0.00 | 0.00 | 54 | 998.6 |
| 20260504044035 | 54 | 173 | 2.0 | 5.0 | 0.00 | 0.00 | 0.00 | 54 | 998.7 |
| 20260504043809 | 54 | 178 | 2.0 | 6.0 | 0.00 | 0.00 | 0.00 | 54 | 998.9 |
| 20260504043034 | 54 | 180 | 1.0 | 6.0 | 0.00 | 0.00 | 0.00 | 55 | 998.9 |
| 20260504042751 | 54 | 184 | 1.0 | 4.0 | 0.00 | 0.00 | 0.00 | 55 | 999.0 |
| 20260504042029 | 54 | 182 | 1.0 | 4.0 | 0.00 | 0.00 | 0.00 | 55 | 999.1 |
| 20260504041525 | 54 | 189 | 1.0 | 4.0 | 0.00 | 0.00 | 0.00 | 55 | 999.2 |
| 20260504041019 | 54 | 190 | 1.0 | 4.0 | 0.00 | 0.00 | 0.00 | 55 | 999.4 |
| 20260504040519 | 54 | 190 | 1.0 | 4.0 | 0.00 | 0.00 | 0.00 | 55 | 999.5 |
| 20260504040020 | 54 | 205 | 1.0 | 3.0 | 0.00 | 0.00 | 0.00 | 54 | 999.6 |
| 20260504035508 | 54 | 219 | 1.0 | 3.0 | 0.00 | 0.00 | 0.00 | 53 | 999.7 |
| 20260504035006 | 54 | 221 | 0.0 | 2.0 | 0.00 | 0.00 | 0.00 | 53 | 1000.0 |
| 20260504035000 | 55 | 221 | 0.0 | 2.0 | 0.00 | 0.00 | 0.00 | 52 | 1000.0 |
| 20260504034447 | 55 | 221 | 0.0 | 2.0 | 0.00 | 0.00 | 0.00 | 52 | 1000.1 |
| 20260504033440 | 55 | 221 | 0.0 | 2.0 | 0.00 | 0.00 | 0.00 | 52 | 1000.2 |
| 20260504032937 | 56 | 221 | 0.0 | 2.0 | 0.00 | 0.00 | 0.00 | 51 | 1000.3 |
| 20260504032923 | 56 | 233 | 0.0 | 2.0 | 0.00 | 0.00 | 0.00 | 51 | 1000.4 |
| 20260504031908 | 56 | 233 | 0.0 | 1.0 | 0.00 | 0.00 | 0.00 | 49 | 1000.4 |
| 20260504031405 | 56 | 233 | 0.0 | 1.0 | 0.00 | 0.00 | 0.00 | 49 | 1000.5 |
| 20260504031125 | 57 | 233 | 0.0 | 1.0 | 0.00 | 0.00 | 0.00 | 49 | 1000.6 |
| 20260504030857 | 57 | 233 | 0.0 | 2.0 | 0.00 | 0.00 | 0.00 | 48 | 1000.7 |
| 20260504025853 | 57 | 233 | 0.0 | 2.0 | 0.00 | 0.00 | 0.00 | 48 | 1000.7 |
| 20260504025617 | 58 | 233 | 1.0 | 2.0 | 0.00 | 0.00 | 0.00 | 49 | 1000.8 |
| 20260504024839 | 58 | 233 | 1.0 | 2.0 | 0.00 | 0.00 | 0.00 | 48 | 1000.8 |
| 20260504024533 | 58 | 233 | 0.0 | 2.0 | 0.00 | 0.00 | 0.00 | 47 | 1000.8 |
| 20260504023811 | 58 | 233 | 1.0 | 4.0 | 0.00 | 0.00 | 0.00 | 47 | 1000.9 |
| 20260504023308 | 59 | 233 | 1.0 | 4.0 | 0.00 | 0.00 | 0.00 | 45 | 1000.9 |
| 20260504022804 | 59 | 230 | 1.0 | 4.0 | 0.00 | 0.00 | 0.00 | 46 | 1001.1 |
| 20260504022304 | 59 | 230 | 1.0 | 4.0 | 0.00 | 0.00 | 0.00 | 43 | 1001.1 |
| 20260504021805 | 59 | 229 | 1.0 | 4.0 | 0.00 | 0.00 | 0.00 | 43 | 1001.1 |
| 20260504021249 | 60 | 229 | 1.0 | 3.0 | 0.00 | 0.00 | 0.00 | 45 | 1001.1 |
| 20260504020750 | 60 | 230 | 1.0 | 3.0 | 0.00 | 0.00 | 0.00 | 44 | 1001.1 |
| 20260504020246 | 60 | 230 | 0.0 | 2.0 | 0.00 | 0.00 | 0.00 | 45 | 1001.0 |
| 20260504015723 | 61 | 231 | 0.0 | 2.0 | 0.00 | 0.00 | 0.00 | 42 | 1001.0 |
| 20260504015225 | 62 | 231 | 0.0 | 2.0 | 0.00 | 0.00 | 0.00 | 43 | 1001.0 |
| 20260504014718 | 62 | 230 | 0.0 | 2.0 | 0.00 | 0.00 | 0.00 | 41 | 1001.0 |
| 20260504014440 | 63 | 230 | 0.0 | 3.0 | 0.00 | 0.00 | 0.00 | 40 | 1001.0 |
| 20260504013706 | 64 | 230 | 0.0 | 3.0 | 0.00 | 0.00 | 0.00 | 41 | 1001.0 |
| 20260504013206 | 64 | 230 | 0.0 | 3.0 | 0.00 | 0.00 | 0.00 | 40 | 1001.0 |
| 20260504012641 | 65 | 231 | 1.0 | 3.0 | 0.00 | 0.00 | 0.00 | 39 | 1001.1 |
| 20260504012623 | 65 | 230 | 1.0 | 4.0 | 0.00 | 0.00 | 0.00 | 34 | 1001.1 |
| 20260504011641 | 66 | 230 | 1.0 | 4.0 | 0.00 | 0.00 | 0.00 | 34 | 1001.1 |
| 20260504011400 | 66 | 229 | 2.0 | 4.0 | 0.00 | 0.00 | 0.00 | 32 | 1001.1 |
| 20260504010639 | 67 | 251 | 2.0 | 4.0 | 0.00 | 0.00 | 0.00 | 32 | 1001.1 |
| 20260504010133 | 67 | 255 | 2.0 | 7.0 | 0.00 | 0.00 | 0.00 | 32 | 1001.1 |
| 20260504005604 | 67 | 252 | 3.0 | 7.0 | 0.00 | 0.00 | 0.00 | 32 | 1001.2 |
| 20260504005334 | 67 | 255 | 3.0 | 9.0 | 0.00 | 0.00 | 0.00 | 31 | 1001.3 |